Starlink 6298

operational
NORAD ID: 56391 Int'l Des: 2023-061 Owner: SPXS Country: US Constellation: starlink
LEOCIRCULAR

About Starlink 6298

Description loading...

Live Position

Loading 3D Globe...

Upcoming Passes

Altitude History

Altitude vs Time

uPlot chart will show altitude changes over time

Two-Line Element Set

1 56391U 23061T 25352.22066229 -.00000465 00000-0 -19391-4 0 9996
2 56391 43.0032 279.7935 0000872 288.9890 71.0858 15.02538784144507
Epoch: Dec 18, 2025 • Age: 11 hours

Current Status

Altitude 559.4 km
Velocity 7.58 km/s
Sub-Earth Point -5.47°S, 62.55°W
Launch Date May 4, 2023
Age 2.6 years
Type internet

Technical Details

Classification Payload
Mass 305.00 kg
Dry Mass 290.00 kg
Total Mass 305.00 kg
Length 0.20 m
Diameter 2.80 m
Span 9.00 m
Shape Box + pan
Manufacturer SPXS
Bus Type Starlink
Phase Status In Orbit
Owner/State SPXS/US

Large Constellations

Loading constellations...